TimeHST,TemperatureF,Dew PointF,Humidity,Sea Level PressureIn,VisibilityMPH,Wind Direction,Wind SpeedMPH,Gust SpeedMPH,PrecipitationIn,Events,Conditions,WindDirDegrees,DateUTC
12:54 AM,70.0,66.0,87,29.97,10.0,Calm,Calm,-,N/A,,Overcast,0,2013-01-13 10:54:00
1:54 AM,66.9,64.0,90,29.96,10.0,SSE,5.8,-,N/A,,Partly Cloudy,150,2013-01-13 11:54:00
2:54 AM,64.0,62.1,93,29.96,10.0,South,4.6,-,N/A,,Clear,170,2013-01-13 12:54:00
3:54 AM,64.9,62.1,90,29.96,10.0,SE,5.8,-,N/A,,Clear,130,2013-01-13 13:54:00
4:54 AM,64.0,61.0,90,29.96,10.0,Calm,Calm,-,N/A,,Clear,0,2013-01-13 14:54:00
5:54 AM,62.1,60.1,93,29.96,10.0,SSE,8.1,-,N/A,,Clear,160,2013-01-13 15:54:00
6:54 AM,64.0,61.0,90,29.97,10.0,SE,8.1,-,N/A,,Clear,130,2013-01-13 16:54:00
7:54 AM,64.9,62.1,90,29.99,10.0,Calm,Calm,-,N/A,,Clear,0,2013-01-13 17:54:00
8:54 AM,71.1,63.0,75,30.00,10.0,Calm,Calm,-,N/A,,Clear,0,2013-01-13 18:54:00
9:54 AM,77.0,66.0,69,30.00,10.0,NNW,3.5,-,N/A,,Clear,340,2013-01-13 19:54:00
10:54 AM,78.1,64.0,62,29.98,10.0,NNW,4.6,-,N/A,,Clear,330,2013-01-13 20:54:00
11:54 AM,82.0,62.1,51,29.95,10.0,Calm,Calm,-,N/A,,Partly Cloudy,0,2013-01-13 21:54:00
12:54 PM,82.0,66.0,58,29.93,10.0,North,6.9,-,N/A,,Partly Cloudy,360,2013-01-13 22:54:00
1:54 PM,82.9,64.0,53,29.93,10.0,North,8.1,-,N/A,,Partly Cloudy,10,2013-01-13 23:54:00
2:54 PM,82.9,64.9,54,29.94,10.0,NNE,9.2,-,N/A,,Scattered Clouds,30,2013-01-14 00:54:00
3:54 PM,82.0,68.0,62,29.95,10.0,NE,12.7,-,N/A,,Scattered Clouds,40,2013-01-14 01:54:00
4:54 PM,80.1,64.9,60,29.96,10.0,Calm,Calm,-,N/A,,Partly Cloudy,0,2013-01-14 02:54:00
5:54 PM,75.9,66.9,74,29.97,10.0,NNW,4.6,-,N/A,,Partly Cloudy,330,2013-01-14 03:54:00
6:54 PM,75.9,66.9,74,29.97,10.0,Calm,Calm,-,N/A,,Clear,0,2013-01-14 04:54:00
7:54 PM,72.0,66.9,84,29.98,10.0,SSW,3.5,-,N/A,,Clear,200,2013-01-14 05:54:00
8:54 PM,71.1,66.0,84,29.98,10.0,SE,5.8,-,N/A,,Clear,130,2013-01-14 06:54:00
9:54 PM,69.1,64.9,87,29.99,10.0,SE,5.8,-,N/A,,Clear,130,2013-01-14 07:54:00
10:54 PM,66.9,63.0,87,29.99,10.0,Calm,Calm,-,N/A,,Clear,0,2013-01-14 08:54:00
11:54 PM,66.9,63.0,87,29.98,10.0,SSE,4.6,-,N/A,,Clear,150,2013-01-14 09:54:00